Weather History for Yuma MCAS, AZ

Change the Weather History Date:

Monday, October 7, 2013

  Actual Average Record
Temperature  
Mean Temperature 80 °F 81 °F  
Max Temperature 95 °F 93 °F 108 °F (1987)
Min Temperature 65 °F 68 °F 45 °F (1913)
Degree Days  
Heating Degree Days 0 0  
Month to date heating degree days 0 0  
Since 1 July heating degree days 0 0  
Cooling Degree Days 15 16  
Month to date cooling degree days 110 120  
Year to date cooling degree days 4493 4294  
Growing Degree Days 28 (Base 50)    
Moisture  
Dew Point 25 °F    
Average Humidity 15    
Maximum Humidity 23    
Minimum Humidity 6    
Precipitation  
Precipitation 0.00 in 0.01 in 0.07 in (2001)
Month to date precipitation 0.00 0.07  
Year to date precipitation 2.31 2.69  
Sea Level Pressure  
Sea Level Pressure 29.87 in    
Wind  
Wind Speed 3 mph (North)    
Max Wind Speed 12 mph    
Max Gust Speed 14 mph    
Visibility 10 miles    
Events      
T = Trace of Precipitation, MM = Missing Value Source: NWS Daily Summary

Daily Weather History Graph

Daily Weather History Graph

Search for Another Location

Airport:

Trip Planner

Search our weather history database for the weather conditions in past years. The results will help you decide how hot, cold, wet, or windy it might be!

Date:

Astronomy

Oct. 07, 2013 Rise Set
Actual Time 6:36 AM MST 6:14 PM MST
Civil Twilight 6:12 AM MST 6:39 PM MST
Nautical Twilight 5:43 AM MST 7:08 PM MST
Astronomical Twilight 5:15 AM MST 7:36 PM MST
Moon 9:20 AM MST (10/7) 8:14 PM MST (10/7)
Length of Visible Light 12h 27m
Length of Day
11h 38m
Waxing Crescent, 9% of the Moon is Illuminated
Oct 7
Waxing Crescent
Oct 11
First Quarter
Oct 18
Full
Oct 26
Last Quarter
Nov 3
New

Hourly Weather History & Observations

Time (MST) Temp. Dew Point Humidity Pressure Visibility Wind Dir Wind Speed Gust Speed Precip Events Conditions
12:57 AM 70.0 °F 24.1 °F 18% 29.93 in 10.0 mi Calm Calm - N/A   Clear
1:57 AM 68.0 °F 28.0 °F 22% 29.92 in 10.0 mi Calm Calm - N/A   Clear
2:57 AM 66.0 °F 24.1 °F 20% 29.91 in 10.0 mi Calm Calm - N/A   Clear
3:57 AM 66.0 °F 25.0 °F 21% 29.90 in 10.0 mi Calm Calm - N/A   Clear
4:57 AM 64.9 °F 25.0 °F 22% 29.89 in 10.0 mi Calm Calm - N/A   Clear
5:57 AM 66.9 °F 21.0 °F 17% 29.90 in 10.0 mi NNE 4.6 mph - N/A   Scattered Clouds
6:57 AM 66.9 °F 24.1 °F 20% 29.91 in 10.0 mi North 3.5 mph - N/A   Scattered Clouds
7:57 AM 72.0 °F 21.0 °F 15% 29.93 in 10.0 mi NNE 5.8 mph - N/A   Scattered Clouds
8:57 AM 77.0 °F 23.0 °F 13% 29.93 in 10.0 mi NNE 8.1 mph - N/A   Mostly Cloudy
9:57 AM 82.9 °F 24.1 °F 12% 29.93 in 10.0 mi North 6.9 mph - N/A   Mostly Cloudy
10:57 AM 87.1 °F 18.0 °F 8% 29.92 in 10.0 mi NNE 9.2 mph - N/A   Mostly Cloudy
11:57 AM 90.0 °F 18.0 °F 7% 29.91 in 10.0 mi NE 8.1 mph - N/A   Smoke
12:57 PM 93.0 °F 17.1 °F 6% 29.88 in 10.0 mi Variable 3.5 mph - N/A   Smoke
1:57 PM 93.0 °F 18.0 °F 6% 29.85 in 10.0 mi Variable 3.5 mph - N/A   Smoke
2:57 PM 93.9 °F 18.0 °F 6% 29.83 in 10.0 mi NNW 3.5 mph - N/A   Mostly Cloudy
3:57 PM 93.9 °F 17.1 °F 6% 29.82 in 10.0 mi West 4.6 mph - N/A   Mostly Cloudy
4:57 PM 91.9 °F 17.1 °F 6% 29.81 in 10.0 mi WNW 3.5 mph - N/A   Mostly Cloudy
5:57 PM 90.0 °F 28.0 °F 11% 29.81 in 10.0 mi Calm Calm - N/A   Mostly Cloudy
6:57 PM 84.9 °F 37.9 °F 19% 29.81 in 10.0 mi SSE 3.5 mph - N/A   Mostly Cloudy
7:57 PM 80.1 °F 37.9 °F 22% 29.81 in 10.0 mi Calm Calm - N/A   Mostly Cloudy
8:57 PM 80.1 °F 35.1 °F 20% 29.82 in 10.0 mi Calm Calm - N/A   Scattered Clouds
9:57 PM 75.9 °F 33.1 °F 21% 29.82 in 10.0 mi WNW 3.5 mph - N/A   Scattered Clouds
10:57 PM 75.0 °F 35.1 °F 23% 29.81 in 10.0 mi Calm Calm - N/A   Clear
11:57 PM 68.0 °F 39.9 °F 36% 29.82 in 9.0 mi Calm Calm - N/A   Clear